Météo par heure à Junkrowy

Ce jour, 20 Juin, Dimanche

Heure Température Précipitation Vent Pression Humidité
00:00 +21°C° 0 mm 2 m/s 745 mmHg 82%
01:00 +20°C° 0 mm 2 m/s 745 mmHg 85%
02:00 +20°C° 0 mm 2 m/s 745 mmHg 86%
03:00 +20°C° 0 mm 2 m/s 745 mmHg 86%
04:00 +20°C° 0 mm 2 m/s 744 mmHg 87%
05:00 +21°C° 0 mm 3 m/s 745 mmHg 81%
06:00 +24°C° 0 mm 3 m/s 745 mmHg 76%
07:00 +26°C° 0 mm 4 m/s 745 mmHg 70%
08:00 +27°C° 0 mm 4 m/s 745 mmHg 64%
09:00 +28°C° 0 mm 5 m/s 745 mmHg 58%
10:00 +29°C° 0 mm 5 m/s 745 mmHg 52%
11:00 +30°C° 0 mm 5 m/s 745 mmHg 49%
12:00 +30°C° 0 mm 5 m/s 744 mmHg 47%
13:00 +32°C° 0 mm 5 m/s 744 mmHg 44%
14:00 +32°C° 0 mm 5 m/s 744 mmHg 45%
15:00 +30°C° 0 mm 5 m/s 744 mmHg 46%
16:00 +30°C° 0 mm 5 m/s 743 mmHg 47%
17:00 +29°C° 0 mm 4 m/s 743 mmHg 53%
18:00 +28°C° 0 mm 4 m/s 743 mmHg 58%
19:00 +26°C° 0 mm 3 m/s 743 mmHg 64%
20:00 +25°C° 0 mm 3 m/s 743 mmHg 68%
21:00 +24°C° 0 mm 3 m/s 743 mmHg 72%
22:00 +22°C° 0 mm 3 m/s 743 mmHg 76%
23:00 +21°C° 0 mm 3 m/s 743 mmHg 79%

Demain, 21 Juin, Lundi

Heure Température Précipitation Vent Pression Humidité
00:00 +20°C° 0 mm 2 m/s 743 mmHg 81%
01:00 +20°C° 0 mm 2 m/s 742 mmHg 84%
02:00 +19°C° 0 mm 2 m/s 742 mmHg 86%
03:00 +19°C° 0 mm 2 m/s 742 mmHg 88%
04:00 +19°C° 0 mm 2 m/s 742 mmHg 91%
05:00 +21°C° 0 mm 3 m/s 742 mmHg 85%
06:00 +23°C° 0 mm 4 m/s 742 mmHg 78%
07:00 +25°C° 0 mm 4 m/s 742 mmHg 72%
08:00 +27°C° 0 mm 5 m/s 742 mmHg 66%
09:00 +28°C° 0 mm 5 m/s 742 mmHg 59%
10:00 +29°C° 0 mm 6 m/s 742 mmHg 52%
11:00 +30°C° 0 mm 6 m/s 742 mmHg 51%
12:00 +30°C° 0 mm 6 m/s 742 mmHg 50%
13:00 +30°C° 0 mm 6 m/s 741 mmHg 48%
14:00 +30°C° 0 mm 6 m/s 741 mmHg 49%
15:00 +30°C° 0 mm 5 m/s 741 mmHg 50%
16:00 +30°C° 0 mm 5 m/s 740 mmHg 51%
17:00 +29°C° 0 mm 4 m/s 740 mmHg 56%
18:00 +28°C° 0 mm 4 m/s 740 mmHg 61%
19:00 +26°C° 0 mm 3 m/s 740 mmHg 66%
20:00 +25°C° 0.2 mm 3 m/s 741 mmHg 70%
21:00 +24°C° 0.2 mm 2 m/s 741 mmHg 74%
22:00 +23°C° 0.2 mm 2 m/s 741 mmHg 79%
23:00 +21°C° 0.3 mm 2 m/s 741 mmHg 83%

Après-demain, 22 Juin, Mardi

Heure Température Précipitation Vent Pression Humidité
00:00 +21°C° 0.3 mm 2 m/s 741 mmHg 87%
01:00 +20°C° 0.3 mm 2 m/s 741 mmHg 91%
02:00 +19°C° 0.2 mm 2 m/s 741 mmHg 93%
03:00 +19°C° 0.2 mm 3 m/s 741 mmHg 94%
04:00 +18°C° 0.2 mm 3 m/s 741 mmHg 96%
05:00 +18°C° 0.1 mm 3 m/s 742 mmHg 93%
06:00 +18°C° 0.1 mm 3 m/s 742 mmHg 90%
07:00 +19°C° 0.1 mm 3 m/s 742 mmHg 88%
08:00 +20°C° 0.1 mm 3 m/s 743 mmHg 80%
09:00 +22°C° 0.1 mm 3 m/s 743 mmHg 72%
10:00 +24°C° 0.1 mm 3 m/s 743 mmHg 64%
11:00 +25°C° 0 mm 3 m/s 744 mmHg 59%
12:00 +26°C° 0 mm 3 m/s 744 mmHg 54%
13:00 +27°C° 0 mm 3 m/s 744 mmHg 49%
14:00 +26°C° 0 mm 3 m/s 744 mmHg 50%
15:00 +26°C° 0 mm 3 m/s 744 mmHg 51%
16:00 +26°C° 0 mm 4 m/s 744 mmHg 53%
17:00 +24°C° 0 mm 3 m/s 745 mmHg 58%
18:00 +21°C° 0 mm 3 m/s 745 mmHg 64%
19:00 +19°C° 0 mm 3 m/s 745 mmHg 69%
20:00 +18°C° 0 mm 2 m/s 745 mmHg 72%
21:00 +16°C° 0 mm 2 m/s 746 mmHg 74%
22:00 +14°C° 0 mm 2 m/s 746 mmHg 77%
23:00 +14°C° 0 mm 1 m/s 746 mmHg 75%

23 Juin, Mercredi

Heure Température Précipitation Vent Pression Humidité
00:00 +14°C° 0 mm 1 m/s 746 mmHg 72%
01:00 +13°C° 0 mm 1 m/s 746 mmHg 70%
02:00 +13°C° 0 mm 1 m/s 746 mmHg 68%
03:00 +13°C° 0 mm 1 m/s 746 mmHg 67%
04:00 +13°C° 0 mm 1 m/s 746 mmHg 65%
05:00 +15°C° 0 mm 1 m/s 746 mmHg 60%
06:00 +18°C° 0 mm 1 m/s 746 mmHg 55%
07:00 +20°C° 0 mm 1 m/s 746 mmHg 50%
08:00 +21°C° 0 mm 2 m/s 746 mmHg 48%
09:00 +23°C° 0 mm 2 m/s 746 mmHg 47%
10:00 +25°C° 0 mm 3 m/s 746 mmHg 46%
11:00 +25°C° 0 mm 3 m/s 746 mmHg 47%
12:00 +26°C° 0 mm 3 m/s 746 mmHg 48%
13:00 +26°C° 0 mm 3 m/s 746 mmHg 49%
14:00 +26°C° 0 mm 3 m/s 746 mmHg 51%
15:00 +25°C° 0 mm 3 m/s 746 mmHg 52%
16:00 +25°C° 0 mm 3 m/s 746 mmHg 54%
17:00 +22°C° 1.1 mm 3 m/s 746 mmHg 62%
18:00 +20°C° 1.1 mm 3 m/s 746 mmHg 70%
19:00 +19°C° 1.1 mm 2 m/s 746 mmHg 78%
20:00 +18°C° 0.2 mm 2 m/s 746 mmHg 79%
21:00 +18°C° 0.2 mm 1 m/s 746 mmHg 81%
22:00 +16°C° 0.2 mm 1 m/s 746 mmHg 83%
23:00 +16°C° 0 mm 1 m/s 746 mmHg 87%

24 Juin, Jeudi

Heure Température Précipitation Vent Pression Humidité
00:00 +16°C° 0 mm 2 m/s 746 mmHg 90%
01:00 +16°C° 0 mm 2 m/s 746 mmHg 94%
02:00 +16°C° 0 mm 3 m/s 746 mmHg 95%
03:00 +14°C° 0 mm 3 m/s 746 mmHg 96%
04:00 +14°C° 0 mm 3 m/s 746 mmHg 97%
05:00 +16°C° 0 mm 3 m/s 746 mmHg 92%
06:00 +15°C° 0 mm 4 m/s 747 mmHg 88%
07:00 +17°C° 0 mm 4 m/s 747 mmHg 84%
08:00 +18°C° 0 mm 4 m/s 747 mmHg 78%
09:00 +19°C° 0 mm 4 m/s 748 mmHg 73%
10:00 +21°C° 0 mm 4 m/s 748 mmHg 67%
11:00 +22°C° 0 mm 3 m/s 748 mmHg 61%
12:00 +24°C° 0 mm 3 m/s 748 mmHg 55%
13:00 +26°C° 0 mm 3 m/s 748 mmHg 49%
14:00 +26°C° 0 mm 3 m/s 747 mmHg 49%
15:00 +26°C° 0 mm 2 m/s 747 mmHg 48%
16:00 +26°C° 0 mm 2 m/s 747 mmHg 48%
17:00 +24°C° 0 mm 3 m/s 747 mmHg 56%
18:00 +22°C° 0 mm 3 m/s 747 mmHg 65%
19:00 +20°C° 0 mm 3 m/s 747 mmHg 73%
20:00 +18°C° 0 mm 3 m/s 747 mmHg 79%
21:00 +16°C° 0 mm 3 m/s 747 mmHg 85%
22:00 +14°C° 0 mm 3 m/s 747 mmHg 91%
23:00 +15°C° 0 mm 2 m/s 747 mmHg 92%

25 Juin, Vendredi

Heure Température Précipitation Vent Pression Humidité
00:00 +14°C° 0 mm 2 m/s 747 mmHg 92%
01:00 +14°C° 0 mm 1 m/s 747 mmHg 92%
02:00 +14°C° 0.9 mm 2 m/s 747 mmHg 93%
03:00 +14°C° 0.9 mm 2 m/s 746 mmHg 94%
04:00 +13°C° 0.9 mm 3 m/s 746 mmHg 94%
05:00 +13°C° 1.5 mm 3 m/s 746 mmHg 95%
06:00 +13°C° 1.5 mm 4 m/s 746 mmHg 95%
07:00 +13°C° 1.5 mm 4 m/s 746 mmHg 95%
08:00 +13°C° 0.7 mm 4 m/s 747 mmHg 95%
09:00 +13°C° 0.7 mm 4 m/s 747 mmHg 94%
10:00 +13°C° 0.7 mm 4 m/s 747 mmHg 94%
11:00 +13°C° 0.6 mm 4 m/s 747 mmHg 93%
12:00 +13°C° 0.6 mm 4 m/s 747 mmHg 93%
13:00 +13°C° 0.6 mm 4 m/s 748 mmHg 93%
14:00 +14°C° 0 mm 4 m/s 748 mmHg 85%
15:00 +17°C° 0 mm 4 m/s 748 mmHg 77%
16:00 +17°C° 0 mm 5 m/s 747 mmHg 68%
17:00 +17°C° 0 mm 4 m/s 747 mmHg 71%
18:00 +17°C° 0 mm 4 m/s 747 mmHg 74%
19:00 +16°C° 0 mm 3 m/s 747 mmHg 77%
20:00 +14°C° 0 mm 3 m/s 748 mmHg 82%
21:00 +14°C° 0 mm 2 m/s 748 mmHg 87%
22:00 +13°C° 0 mm 2 m/s 748 mmHg 92%
23:00 +12°C° 0 mm 2 m/s 748 mmHg 92%
Voir plus

Nous avons besoin de votre consentement

Meteoprog et ses fournisseurs de services peuvent stocker et accéder à des données personnelles telles que des cookies, des identifiants d'appareils ou d'autres technologies similaires sur votre appareil et traiter ces données pour personnaliser le contenu et les publicités, ainsi que pour fournir des fonctionnalités de médias sociaux et analyser le trafic.

  • Stocker et/ou accéder à des informations sur votre appareil

    Des cookies, des identifiants d'appareils ou d'autres informations peuvent être stockés ou accessibles sur votre appareil aux fins indiquées ci-dessus.

  • Annonces et contenus personnalisés, mesure des annonces et des contenus, connaissance de l'audience et développement de produits

    Les annonces et le contenu peuvent être personnalisés en fonction d'un profil. D'autres données peuvent être ajoutées pour mieux personnaliser les annonces et le contenu. Les performances des publicités et du contenu peuvent être mesurées. Il est possible d'obtenir des informations sur le public qui a vu les publicités et le contenu. Ces données peuvent être utilisées pour développer ou améliorer l'expérience de l'utilisateur, les systèmes et les logiciels.

En cliquant sur "J'accepte", vous autorisez l'utilisation de cookies, des identifiants d'appareils, des balises web ou d'autres technologies similaires. Vos paramètres peuvent être modifiés dans le navigateur de votre appareil.

Dans certains cas, des intérêts légitimes peuvent être invoqués plutôt qu'un consentement. Vous pouvez en savoir plus à ce sujet dans notre Politique de confidentialité et de cookies.